Location: Unspecified
(17.6330°N, 0.0000°E)
Time: 18:53:43
(UTC+00:00)

A-11 Canister half - Pass Details

Date: 24 June 2019
Orbit: 1514 x 1685 km, 47.2° (Epoch: 18 July)

Event Time Altitude Azimuth Distance (km) Brightness Sun altitude
Rises 06:25:45 0° 193° (SSW) 4,919 11.3 12.1°
Reaches altitude 10° 06:29:30 10° 183° (S) 3,939 11.0 12.9°
Maximum altitude 06:37:52 30° 127° (SE) 2,697 10.9 14.8°
Drops below altitude 10° 06:46:07 10° 71° (ENE) 3,912 14.0 16.6°
Sets 06:49:46 0° 61° (ENE) 4,882 13.3 17.5°
